CARTOSAT 2AT

Satellite information

Favourite Embed

Satellite Type and Status

PAYLOADDECAYED

Key statistics

Satellite CARTOSAT 2AT at a glance.

Uptime

6244

Days in orbit

Revolutions

≈ 16.2

Per day

Orbit

SSO

Sun Synchronous Orbit

Inclination

97.9

Latest

Satellite identification and parameters

Extended collection of information and parameters for CARTOSAT 2AT.

Object identification

Identified? True

Debris? False

Object name: CARTOSAT 2AT

International designator: 2007-001B

Object number (NORAD): 29710

Object ID (CCSDS): 29710

Country: INDIA (IND)

Current information (Y/N): Y

RCS size: LARGE

Orbital parameters

Decay date: Feb. 14, 2024

Period: 88.75 minutes

Inclination: 97.8672 deg

SMA: 6590.827 km

Apoapsis: 222.699 km

Periapsis: 202.685 km

RAAN: 215.7515 deg

Eccentricy: 0.0015183

Argument of periapsis: 16.6936 deg

Mean anomaly: 56.7784 deg

Mean motion: 16.22530712 rev/day

Mean motion (dot): 0.01854776 rev/day2

B* drag term: 0.00079059 1/REarth

Two-line elements (TLE)

Creation date: Feb. 11, 2024, 3:56 p.m.

Reference frame: TEME

Reference center: EARTH

Epoch: Feb. 11, 2024, 1:52 p.m. UTC

TLE line 0: 0 CARTOSAT 2AT

TLE line 1: 1 29710U 07001B 24042.57844498 .01854776 27223-5 79059-3 0 9990

TLE line 2: 2 29710 97.8672 215.7515 0015183 16.6936 56.7784 16.22530712929876

Live tracking on map

Satellite CARTOSAT 2AT has decayed and is no longer in orbit. No tracking available.

In-orbit conjunctions

Satellite CARTOSAT 2AT has decayed and is no longer in orbit. No conjunctions available.

Associated space launch

Indian Earth observation and re-entry technology satellites

CARTOSAT 2AT was lifted into orbit during the mission ‘PSLV | Cartosat 2 & SRE 1’, on board a PSLV space rocket.

The launch took place on Jan. 10, 2007, 3:54 a.m. from Satish Dhawan Space Centre First Launch Pad.

For more information about the launch, click the button.

Launch to space PSLV | Cartosat 2 & SRE 1
PSLV | Cartosat 2 & SRE 1

Agency: N/A

Status: Launch Successful

Launch date: Jan. 10, 2007, 3:54 a.m. UTC

Rocket: PSLV

Launch pad: Satish Dhawan Space Centre First Launch Pad

Location: Satish Dhawan Space Centre, India

...

Latest news about this satellite

There are no fresh news available about this satellite. Check back as we update our databases every day.


Newsletter sign-up

Weekly statistics, charts and insights to help you stay on top of the space industry.